sat.trackr.live / text

‹ back to catalog

COSMO-SKYMED 3

NORAD 33412 · 2008-054A

PAYLOAD ACTIVE UNKNOWN

§ Identity

Operator
Country
IT
Launch date
2008-10-25
Launch site
AFWTR
Launch vehicle
Mass (kg)
RCS (m²)
3.92

Purposes: earth_obs

External: N2YO · Heavens-Above · Gunter

§ Orbital elements

Epoch: 2026-09-10T04:32:06.283968Z

Period
95.53 min
Inclination
97.8167°
Eccentricity
0.0015193
Mean motion
15.07406045 rev/d
Perigee alt
533.6 km
Apogee alt
554.6 km
Semi-major
6,922.3 km
B*
8.9995e-5
RAAN
113.1509°
Arg perigee
344.8932°
Mean anomaly
15.1839°
Rev number
96,974

§ Raw data

COSMO-SKYMED 31 33412U 08054A   26253.18896162  .00001299  00000+0  89995-4 0  99932 33412  97.8167 113.1509 0015193 344.8932  15.1839 15.07406045969749

JSON: /api/v1/satellites/33412 · /tle

For live sub-satellite position, see the globe view (requires WebGL).

§ Visibility from observer

Set your observer location to see the next 7 days of passes ≥ 10°. The values pass through the URL so the page stays shareable.

No JS? Fill the form by hand. The geolocation button needs JavaScript.